Location: Clair
(33.8067°N, 117.9845°W)
Time: 07:52:38
(UTC+00:00)

Cosmos 1725 Rocket - Pass Details

Date: 14 February 2026
Orbit: 962 x 989 km, 82.9° (Epoch: 12 March)

Event Time Altitude Azimuth Distance (km) Brightness Sun altitude
Rises 14:05:00 0° 179° (S) 3,632 7.1 -7.4°
Reaches altitude 10° 14:07:30 10° 178° (S) 2,687 6.5 -6.8°
Maximum altitude 14:13:37 75° 93° (E) 997 4.3 -5.6°
Drops below altitude 10° 14:19:47 10° 10° (N) 2,704 6.3 -4.3°
Sets 14:22:17 0° 9° (N) 3,655 7.0 -3.8°
